Year,Month,Day,Hour,Minute,Value (Times are PST for temperature in C)
2012,08,25,00,00,10.60
2012,08,25,00,01,10.60
2012,08,25,00,02,10.60
2012,08,25,00,03,10.60
2012,08,25,00,04,10.60
2012,08,25,00,05,10.60
2012,08,25,00,06,10.60
2012,08,25,00,07,10.60
2012,08,25,00,08,10.60
2012,08,25,00,09,10.60
2012,08,25,00,10,10.60
2012,08,25,00,11,10.60
2012,08,25,00,12,10.60
2012,08,25,00,13,10.50
2012,08,25,00,14,10.40
2012,08,25,00,15,10.40
2012,08,25,00,16,10.40
2012,08,25,00,17,10.40
2012,08,25,00,18,10.40
2012,08,25,00,19,10.40
2012,08,25,00,20,10.40
2012,08,25,00,21,10.30
2012,08,25,00,22,10.30
2012,08,25,00,23,10.30
2012,08,25,00,24,10.30
2012,08,25,00,25,10.30
2012,08,25,00,26,10.30
2012,08,25,00,27,10.30
2012,08,25,00,28,10.30
2012,08,25,00,29,10.30
2012,08,25,00,30,10.20
2012,08,25,00,31,10.20
2012,08,25,00,32,10.20
2012,08,25,00,33,10.20
2012,08,25,00,34,10.20
2012,08,25,00,35,10.20
2012,08,25,00,36,10.20
2012,08,25,00,37,10.20
2012,08,25,00,38,10.20
2012,08,25,00,39,10.20
2012,08,25,00,40,10.10
2012,08,25,00,41,10.10
2012,08,25,00,42,10.10
2012,08,25,00,43,10.10
2012,08,25,00,44,10.10
2012,08,25,00,45,10.10
2012,08,25,00,46,10.10
2012,08,25,00,47,10.10
2012,08,25,00,48,10.10
2012,08,25,00,49,10.10
2012,08,25,00,50,10.10
2012,08,25,00,51,10.10
2012,08,25,00,52,10.10
2012,08,25,00,53,10.10
2012,08,25,00,54,10.10
2012,08,25,00,55,10.10
2012,08,25,00,56,10.10
2012,08,25,00,57,10.10
2012,08,25,00,58,10.00
2012,08,25,00,59,9.90
2012,08,25,01,00,9.90
2012,08,25,01,01,9.90
2012,08,25,01,02,9.90
2012,08,25,01,03,9.90
2012,08,25,01,04,9.90
2012,08,25,01,05,9.90
2012,08,25,01,06,9.90
2012,08,25,01,07,9.90
2012,08,25,01,08,9.90
2012,08,25,01,09,9.90
2012,08,25,01,10,9.90
2012,08,25,01,11,9.90
2012,08,25,01,12,9.90
2012,08,25,01,13,9.90
2012,08,25,01,14,9.90
2012,08,25,01,15,9.90
2012,08,25,01,16,9.90
2012,08,25,01,17,9.90
2012,08,25,01,18,9.90
2012,08,25,01,19,9.80
2012,08,25,01,20,9.80
2012,08,25,01,21,9.80
2012,08,25,01,22,9.80
2012,08,25,01,23,9.80
2012,08,25,01,24,9.80
2012,08,25,01,25,9.80
2012,08,25,01,26,9.80
2012,08,25,01,27,9.80
2012,08,25,01,28,9.80
2012,08,25,01,29,9.80
2012,08,25,01,30,9.80
2012,08,25,01,31,9.80
2012,08,25,01,32,9.80
2012,08,25,01,33,9.80
2012,08,25,01,34,9.80
2012,08,25,01,35,9.80
2012,08,25,01,36,9.70
2012,08,25,01,37,9.70
2012,08,25,01,38,9.70
2012,08,25,01,39,9.70
2012,08,25,01,40,9.70
2012,08,25,01,41,9.70
2012,08,25,01,42,9.70
2012,08,25,01,43,9.70
2012,08,25,01,44,9.70
2012,08,25,01,45,9.70
2012,08,25,01,46,9.70
2012,08,25,01,47,9.70
2012,08,25,01,48,9.70
2012,08,25,01,49,9.70
2012,08,25,01,50,9.60
2012,08,25,01,51,9.60
2012,08,25,01,52,9.60
2012,08,25,01,53,9.60
2012,08,25,01,54,9.60
2012,08,25,01,55,9.60
2012,08,25,01,56,9.70
2012,08,25,01,57,9.70
2012,08,25,01,58,9.70
2012,08,25,01,59,9.70
2012,08,25,02,00,9.70
2012,08,25,02,01,9.70
2012,08,25,02,02,9.70
2012,08,25,02,03,9.70
2012,08,25,02,04,9.70
2012,08,25,02,05,9.70
2012,08,25,02,06,9.70
2012,08,25,02,07,9.70
2012,08,25,02,08,9.60
2012,08,25,02,09,9.60
2012,08,25,02,10,9.60
2012,08,25,02,11,9.60
2012,08,25,02,12,9.60
2012,08,25,02,13,9.60
2012,08,25,02,14,9.60
2012,08,25,02,15,9.60
2012,08,25,02,16,9.60
2012,08,25,02,17,9.60
2012,08,25,02,18,9.60
2012,08,25,02,19,9.60
2012,08,25,02,20,9.60
2012,08,25,02,21,9.60
2012,08,25,02,22,9.60
2012,08,25,02,23,9.60
2012,08,25,02,24,9.60
2012,08,25,02,25,9.60
2012,08,25,02,26,9.60
2012,08,25,02,27,9.60
2012,08,25,02,28,9.60
2012,08,25,02,29,9.50
2012,08,25,02,30,9.50
2012,08,25,02,31,9.50
2012,08,25,02,32,9.50
2012,08,25,02,33,9.50
2012,08,25,02,34,9.50
2012,08,25,02,35,9.50
2012,08,25,02,36,9.50
2012,08,25,02,37,9.50
2012,08,25,02,38,9.50
2012,08,25,02,39,9.50
2012,08,25,02,40,9.50
2012,08,25,02,41,9.50
2012,08,25,02,42,9.50
2012,08,25,02,43,9.50
2012,08,25,02,44,9.50
2012,08,25,02,45,9.50
2012,08,25,02,46,9.50
2012,08,25,02,47,9.50
2012,08,25,02,48,9.50
2012,08,25,02,49,9.50
2012,08,25,02,50,9.50
2012,08,25,02,51,9.50
2012,08,25,02,52,9.50
2012,08,25,02,53,9.50
2012,08,25,02,54,9.50
2012,08,25,02,55,9.50
2012,08,25,02,56,9.50
2012,08,25,02,57,9.50
2012,08,25,02,58,9.40
2012,08,25,02,59,9.40
2012,08,25,03,00,9.40
2012,08,25,03,01,9.40
2012,08,25,03,02,9.40
2012,08,25,03,03,9.40
2012,08,25,03,04,9.40
2012,08,25,03,05,9.40
2012,08,25,03,06,9.40
2012,08,25,03,07,9.40
2012,08,25,03,08,9.40
2012,08,25,03,09,9.40
2012,08,25,03,10,9.40
2012,08,25,03,11,9.40
2012,08,25,03,12,9.40
2012,08,25,03,13,9.40
2012,08,25,03,14,9.40
2012,08,25,03,15,9.40
2012,08,25,03,16,9.30
2012,08,25,03,17,9.30
2012,08,25,03,18,9.30
2012,08,25,03,19,9.30
2012,08,25,03,20,9.30
2012,08,25,03,21,9.30
2012,08,25,03,22,9.30
2012,08,25,03,23,9.40
2012,08,25,03,24,9.40
2012,08,25,03,25,9.40
2012,08,25,03,26,9.40
2012,08,25,03,27,9.40
2012,08,25,03,28,9.40
2012,08,25,03,29,9.40
2012,08,25,03,30,9.40
2012,08,25,03,31,9.40
2012,08,25,03,32,9.40
2012,08,25,03,33,9.40
2012,08,25,03,34,9.40
2012,08,25,03,35,9.40
2012,08,25,03,36,9.40
2012,08,25,03,37,9.40
2012,08,25,03,38,9.40
2012,08,25,03,39,9.40
2012,08,25,03,40,9.40
2012,08,25,03,41,9.40
2012,08,25,03,42,9.40
2012,08,25,03,43,9.40
2012,08,25,03,44,9.40
2012,08,25,03,45,9.40
2012,08,25,03,46,9.50
2012,08,25,03,47,9.50
2012,08,25,03,48,9.50
2012,08,25,03,49,9.50
2012,08,25,03,50,9.50
2012,08,25,03,51,9.50
2012,08,25,03,52,9.50
2012,08,25,03,53,9.50
2012,08,25,03,54,9.50
2012,08,25,03,55,9.50
2012,08,25,03,56,9.50
2012,08,25,03,57,9.50
2012,08,25,03,58,9.50
2012,08,25,03,59,9.50
2012,08,25,04,00,9.50
2012,08,25,04,01,9.50
2012,08,25,04,02,9.50
2012,08,25,04,03,9.60
2012,08,25,04,04,9.60
2012,08,25,04,05,9.60
2012,08,25,04,06,9.60
2012,08,25,04,07,9.60
2012,08,25,04,08,9.60
2012,08,25,04,09,9.60
2012,08,25,04,10,9.60
2012,08,25,04,11,9.60
2012,08,25,04,12,9.60
2012,08,25,04,13,9.60
2012,08,25,04,14,9.70
2012,08,25,04,15,9.70
2012,08,25,04,16,9.60
2012,08,25,04,17,9.70
2012,08,25,04,18,9.70
2012,08,25,04,19,9.70
2012,08,25,04,20,9.70
2012,08,25,04,21,9.70
2012,08,25,04,22,9.70
2012,08,25,04,23,9.70
2012,08,25,04,24,9.70
2012,08,25,04,25,9.70
2012,08,25,04,26,9.70
2012,08,25,04,27,9.70
2012,08,25,04,28,9.70
2012,08,25,04,29,9.70
2012,08,25,04,30,9.70
2012,08,25,04,31,9.70
2012,08,25,04,32,9.70
2012,08,25,04,33,9.70
2012,08,25,04,34,9.70
2012,08,25,04,35,9.70
2012,08,25,04,36,9.70
2012,08,25,04,37,9.70
2012,08,25,04,38,9.70
2012,08,25,04,39,9.70
2012,08,25,04,40,9.70
2012,08,25,04,41,9.70
2012,08,25,04,42,9.70
2012,08,25,04,43,9.70
2012,08,25,04,44,9.70
2012,08,25,04,45,9.70
2012,08,25,04,46,9.70
2012,08,25,04,47,9.70
2012,08,25,04,48,9.70
2012,08,25,04,49,9.70
2012,08,25,04,50,9.70
2012,08,25,04,51,9.70
2012,08,25,04,52,9.70
2012,08,25,04,53,9.70
2012,08,25,04,54,9.70
2012,08,25,04,55,9.70
2012,08,25,04,56,9.70
2012,08,25,04,57,9.70
2012,08,25,04,58,9.70
2012,08,25,04,59,9.70
2012,08,25,05,00,9.70
2012,08,25,05,01,9.70
2012,08,25,05,02,9.70
2012,08,25,05,03,9.70
2012,08,25,05,04,9.70
2012,08,25,05,05,9.70
2012,08,25,05,06,9.70
2012,08,25,05,07,9.70
2012,08,25,05,08,9.70
2012,08,25,05,09,9.70
2012,08,25,05,10,9.70
2012,08,25,05,11,9.70
2012,08,25,05,12,9.70
2012,08,25,05,13,9.70
2012,08,25,05,14,9.70
2012,08,25,05,15,9.70
2012,08,25,05,16,9.70
2012,08,25,05,17,9.70
2012,08,25,05,18,9.70
2012,08,25,05,19,9.70
2012,08,25,05,20,9.70
2012,08,25,05,21,9.70
2012,08,25,05,22,9.70
2012,08,25,05,23,9.70
2012,08,25,05,24,9.70
2012,08,25,05,25,9.70
2012,08,25,05,26,9.70
2012,08,25,05,27,9.70
2012,08,25,05,28,9.70
2012,08,25,05,29,9.70
2012,08,25,05,30,9.70
2012,08,25,05,31,9.70
2012,08,25,05,32,9.70
2012,08,25,05,33,9.70
2012,08,25,05,34,9.70
2012,08,25,05,35,9.70
2012,08,25,05,36,9.70
2012,08,25,05,37,9.70
2012,08,25,05,38,9.70
2012,08,25,05,39,9.70
2012,08,25,05,40,9.70
2012,08,25,05,41,9.70
2012,08,25,05,42,9.70
2012,08,25,05,43,9.70
2012,08,25,05,44,9.70
2012,08,25,05,45,9.60
2012,08,25,05,46,9.60
2012,08,25,05,47,9.60
2012,08,25,05,48,9.60
2012,08,25,05,49,9.60
2012,08,25,05,50,9.50
2012,08,25,05,51,9.50
2012,08,25,05,52,9.50
2012,08,25,05,53,9.50
2012,08,25,05,54,9.50
2012,08,25,05,55,9.50
2012,08,25,05,56,9.40
2012,08,25,05,57,9.40
2012,08,25,05,58,9.40
2012,08,25,05,59,9.40
2012,08,25,06,00,9.40
2012,08,25,06,01,9.40
2012,08,25,06,02,9.40
2012,08,25,06,03,9.30
2012,08,25,06,04,9.30
2012,08,25,06,05,9.30
2012,08,25,06,06,9.30
2012,08,25,06,07,9.30
2012,08,25,06,08,9.30
2012,08,25,06,09,9.30
2012,08,25,06,10,9.30
2012,08,25,06,11,9.20
2012,08,25,06,12,9.20
2012,08,25,06,13,9.20
2012,08,25,06,14,9.20
2012,08,25,06,15,9.20
2012,08,25,06,16,9.20
2012,08,25,06,17,9.20
2012,08,25,06,18,9.20
2012,08,25,06,19,9.20
2012,08,25,06,20,9.20
2012,08,25,06,21,9.20
2012,08,25,06,22,9.20
2012,08,25,06,23,9.20
2012,08,25,06,24,9.20
2012,08,25,06,25,9.20
2012,08,25,06,26,9.20
2012,08,25,06,27,9.20
2012,08,25,06,28,9.20
2012,08,25,06,29,9.20
2012,08,25,06,30,9.20
2012,08,25,06,31,9.20
2012,08,25,06,32,9.20
2012,08,25,06,33,9.20
2012,08,25,06,34,9.20
2012,08,25,06,35,9.20
2012,08,25,06,36,9.20
2012,08,25,06,37,9.20
2012,08,25,06,38,9.20
2012,08,25,06,39,9.20
2012,08,25,06,40,9.20
2012,08,25,06,41,9.20
2012,08,25,06,42,9.20
2012,08,25,06,43,9.20
2012,08,25,06,44,9.20
2012,08,25,06,45,9.20
2012,08,25,06,46,9.20
2012,08,25,06,47,9.20
2012,08,25,06,48,9.20
2012,08,25,06,49,9.20
2012,08,25,06,50,9.20
2012,08,25,06,51,9.20
2012,08,25,06,52,9.20
2012,08,25,06,53,9.20
2012,08,25,06,54,9.20
2012,08,25,06,55,9.20
2012,08,25,06,56,9.20
2012,08,25,06,57,9.20
2012,08,25,06,58,9.20
2012,08,25,06,59,9.20
2012,08,25,07,00,9.20
2012,08,25,07,01,9.20
2012,08,25,07,02,9.20
2012,08,25,07,03,9.20
2012,08,25,07,04,9.20
2012,08,25,07,05,9.20
2012,08,25,07,06,9.20
2012,08,25,07,07,9.20
2012,08,25,07,08,9.20
2012,08,25,07,09,9.20
2012,08,25,07,10,9.20
2012,08,25,07,11,9.20
2012,08,25,07,12,9.20
2012,08,25,07,13,9.20
2012,08,25,07,14,9.20
2012,08,25,07,15,9.20
2012,08,25,07,16,9.30
2012,08,25,07,17,9.30
2012,08,25,07,18,9.30
2012,08,25,07,19,9.30
2012,08,25,07,20,9.30
2012,08,25,07,21,9.40
2012,08,25,07,22,9.40
2012,08,25,07,23,9.40
2012,08,25,07,24,9.40
2012,08,25,07,25,9.40
2012,08,25,07,26,9.40
2012,08,25,07,27,9.40
2012,08,25,07,28,9.40
2012,08,25,07,29,9.40
2012,08,25,07,30,9.40
2012,08,25,07,31,9.40
2012,08,25,07,32,9.40
2012,08,25,07,33,9.50
2012,08,25,07,34,9.50
2012,08,25,07,35,9.50
2012,08,25,07,36,9.50
2012,08,25,07,37,9.60
2012,08,25,07,38,9.60
2012,08,25,07,39,9.60
2012,08,25,07,40,9.70
2012,08,25,07,41,9.70
2012,08,25,07,42,9.70
2012,08,25,07,43,9.70
2012,08,25,07,44,9.70
2012,08,25,07,45,9.70
2012,08,25,07,46,9.70
2012,08,25,07,47,9.70
2012,08,25,07,48,9.80
2012,08,25,07,49,9.80
2012,08,25,07,50,9.80
2012,08,25,07,51,9.80
2012,08,25,07,52,9.90
2012,08,25,07,53,9.90
2012,08,25,07,54,9.90
2012,08,25,07,55,9.90
2012,08,25,07,56,9.90
2012,08,25,07,57,10.00
2012,08,25,07,58,10.10
2012,08,25,07,59,10.10
2012,08,25,08,00,10.10
2012,08,25,08,01,10.10
2012,08,25,08,02,10.10
2012,08,25,08,03,10.20
2012,08,25,08,04,10.20
2012,08,25,08,05,10.20
2012,08,25,08,06,10.30
2012,08,25,08,07,10.30
2012,08,25,08,08,10.40
2012,08,25,08,09,10.40
2012,08,25,08,10,10.40
2012,08,25,08,11,10.50
2012,08,25,08,12,10.60
2012,08,25,08,13,10.60
2012,08,25,08,14,10.60
2012,08,25,08,15,10.60
2012,08,25,08,16,10.70
2012,08,25,08,17,10.80
2012,08,25,08,18,10.80
2012,08,25,08,19,10.90
2012,08,25,08,20,10.90
2012,08,25,08,21,11.00
2012,08,25,08,22,11.10
2012,08,25,08,23,11.10
2012,08,25,08,24,11.20
2012,08,25,08,25,11.30
2012,08,25,08,26,11.50
2012,08,25,08,27,11.60
2012,08,25,08,28,11.70
2012,08,25,08,29,11.80
2012,08,25,08,30,11.90
2012,08,25,08,31,12.00
2012,08,25,08,32,12.10
2012,08,25,08,33,12.30
2012,08,25,08,34,12.40
2012,08,25,08,35,12.50
2012,08,25,08,36,12.60
2012,08,25,08,37,12.70
2012,08,25,08,38,12.90
2012,08,25,08,39,13.00
2012,08,25,08,40,13.10
2012,08,25,08,41,13.30
2012,08,25,08,42,13.40
2012,08,25,08,43,13.50
2012,08,25,08,44,13.70
2012,08,25,08,45,13.70
2012,08,25,08,46,13.80
2012,08,25,08,47,13.90
2012,08,25,08,48,14.00
2012,08,25,08,49,14.20
2012,08,25,08,50,14.20
2012,08,25,08,51,14.40
2012,08,25,08,52,14.50
2012,08,25,08,53,14.50
2012,08,25,08,54,14.60
2012,08,25,08,55,14.70
2012,08,25,08,56,14.80
2012,08,25,08,57,14.80
2012,08,25,08,58,14.90
2012,08,25,08,59,15.00
2012,08,25,09,00,15.00
2012,08,25,09,01,15.10
2012,08,25,09,02,15.10
2012,08,25,09,03,15.20
2012,08,25,09,04,15.20
2012,08,25,09,05,15.20
2012,08,25,09,06,15.30
2012,08,25,09,07,15.30
2012,08,25,09,08,15.30
2012,08,25,09,09,15.30
2012,08,25,09,10,15.40
2012,08,25,09,11,15.40
2012,08,25,09,12,15.40
2012,08,25,09,13,15.50
2012,08,25,09,14,15.50
2012,08,25,09,15,15.50
2012,08,25,09,16,15.60
2012,08,25,09,17,15.60
2012,08,25,09,18,15.60
2012,08,25,09,19,15.70
2012,08,25,09,20,15.70
2012,08,25,09,21,15.70
2012,08,25,09,22,15.80
2012,08,25,09,23,15.80
2012,08,25,09,24,15.80
2012,08,25,09,25,15.80
2012,08,25,09,26,15.80
2012,08,25,09,27,15.80
2012,08,25,09,28,15.90
2012,08,25,09,29,15.90
2012,08,25,09,30,15.90
2012,08,25,09,31,15.90
2012,08,25,09,32,16.00
2012,08,25,09,33,16.10
2012,08,25,09,34,16.10
2012,08,25,09,35,16.10
2012,08,25,09,36,16.10
2012,08,25,09,37,16.10
2012,08,25,09,38,16.10
2012,08,25,09,39,16.10
2012,08,25,09,40,16.10
2012,08,25,09,41,16.20
2012,08,25,09,42,16.20
2012,08,25,09,43,16.20
2012,08,25,09,44,16.20
2012,08,25,09,45,16.20
2012,08,25,09,46,16.20
2012,08,25,09,47,16.30
2012,08,25,09,48,16.30
2012,08,25,09,49,16.30
2012,08,25,09,50,16.30
2012,08,25,09,51,16.40
2012,08,25,09,52,16.40
2012,08,25,09,53,16.40
2012,08,25,09,54,16.40
2012,08,25,09,55,16.40
2012,08,25,09,56,16.40
2012,08,25,09,57,16.40
2012,08,25,09,58,16.40
2012,08,25,09,59,16.40
2012,08,25,10,00,16.60
2012,08,25,10,01,16.60
2012,08,25,10,02,16.60
2012,08,25,10,03,16.60
2012,08,25,10,04,16.70
2012,08,25,10,05,16.70
2012,08,25,10,06,16.70
2012,08,25,10,07,16.70
2012,08,25,10,08,16.70
2012,08,25,10,09,16.70
2012,08,25,10,10,16.70
2012,08,25,10,11,16.70
2012,08,25,10,12,16.80
2012,08,25,10,13,16.80
2012,08,25,10,14,16.80
2012,08,25,10,15,16.90
2012,08,25,10,16,16.90
2012,08,25,10,17,17.00
2012,08,25,10,18,17.00
2012,08,25,10,19,17.00
2012,08,25,10,20,17.10
2012,08,25,10,21,17.10
2012,08,25,10,22,17.10
2012,08,25,10,23,17.20
2012,08,25,10,24,17.20
2012,08,25,10,25,17.20
2012,08,25,10,26,17.30
2012,08,25,10,27,17.30
2012,08,25,10,28,17.30
2012,08,25,10,29,17.30
2012,08,25,10,30,17.30
2012,08,25,10,31,17.40
2012,08,25,10,32,17.40
2012,08,25,10,33,17.40
2012,08,25,10,34,17.50
2012,08,25,10,35,17.50
2012,08,25,10,36,17.50
2012,08,25,10,37,17.50
2012,08,25,10,38,17.50
2012,08,25,10,39,17.60
2012,08,25,10,40,17.60
2012,08,25,10,41,17.60
2012,08,25,10,42,17.70
2012,08,25,10,43,17.70
2012,08,25,10,44,17.70
2012,08,25,10,45,17.80
2012,08,25,10,46,17.80
2012,08,25,10,47,17.80
2012,08,25,10,48,17.80
2012,08,25,10,49,17.80
2012,08,25,10,50,17.80
2012,08,25,10,51,17.80
2012,08,25,10,52,17.80
2012,08,25,10,53,17.80
2012,08,25,10,54,17.90
2012,08,25,10,55,17.90
2012,08,25,10,56,17.90
2012,08,25,10,57,17.90
2012,08,25,10,58,17.90
2012,08,25,10,59,17.90
2012,08,25,11,00,17.90
2012,08,25,11,01,17.90
2012,08,25,11,02,17.90
2012,08,25,11,03,17.90
2012,08,25,11,04,17.90
2012,08,25,11,05,18.00
2012,08,25,11,06,18.10
2012,08,25,11,07,18.10
2012,08,25,11,08,18.10
2012,08,25,11,09,18.20
2012,08,25,11,10,18.20
2012,08,25,11,11,18.20
2012,08,25,11,12,18.20
2012,08,25,11,13,18.20
2012,08,25,11,14,18.20
2012,08,25,11,15,18.30
2012,08,25,11,16,18.30
2012,08,25,11,17,18.30
2012,08,25,11,18,18.30
2012,08,25,11,19,18.30
2012,08,25,11,20,18.30
2012,08,25,11,21,18.30
2012,08,25,11,22,18.30
2012,08,25,11,23,18.30
2012,08,25,11,24,18.40
2012,08,25,11,25,18.40
2012,08,25,11,26,18.40
2012,08,25,11,27,18.40
2012,08,25,11,28,18.50
2012,08,25,11,29,18.50
2012,08,25,11,30,18.50
2012,08,25,11,31,18.50
2012,08,25,11,32,18.50
2012,08,25,11,33,18.50
2012,08,25,11,34,18.50
2012,08,25,11,35,18.60
2012,08,25,11,36,18.60
2012,08,25,11,37,18.60
2012,08,25,11,38,18.60
2012,08,25,11,39,18.60
2012,08,25,11,40,18.70
2012,08,25,11,41,18.70
2012,08,25,11,42,18.70
2012,08,25,11,43,18.70
2012,08,25,11,44,18.70
2012,08,25,11,45,18.70
2012,08,25,11,46,18.80
2012,08,25,11,47,18.80
2012,08,25,11,48,18.80
2012,08,25,11,49,18.80
2012,08,25,11,50,18.90
2012,08,25,11,51,18.90
2012,08,25,11,52,18.90
2012,08,25,11,53,18.90
2012,08,25,11,54,19.10
2012,08,25,11,55,19.10
2012,08,25,11,56,19.10
2012,08,25,11,57,19.10
2012,08,25,11,58,19.20
2012,08,25,11,59,19.20
2012,08,25,12,00,19.20
2012,08,25,12,01,19.20
2012,08,25,12,02,19.30
2012,08,25,12,03,19.30
2012,08,25,12,04,19.30
2012,08,25,12,05,19.30
2012,08,25,12,06,19.30
2012,08,25,12,07,19.30
2012,08,25,12,08,19.30
2012,08,25,12,09,19.40
2012,08,25,12,10,19.40
2012,08,25,12,11,19.40
2012,08,25,12,12,19.40
2012,08,25,12,13,19.50
2012,08,25,12,14,19.50
2012,08,25,12,15,19.50
2012,08,25,12,16,19.50
2012,08,25,12,17,19.60
2012,08,25,12,18,19.60
2012,08,25,12,19,19.60
2012,08,25,12,20,19.60
2012,08,25,12,21,19.70
2012,08,25,12,22,19.70
2012,08,25,12,23,19.70
2012,08,25,12,24,19.80
2012,08,25,12,25,19.70
2012,08,25,12,26,19.70
2012,08,25,12,27,19.80
2012,08,25,12,28,19.80
2012,08,25,12,29,19.80
2012,08,25,12,30,19.80
2012,08,25,12,31,19.80
2012,08,25,12,32,19.90
2012,08,25,12,33,19.90
2012,08,25,12,34,19.90
2012,08,25,12,35,19.90
2012,08,25,12,36,19.90
2012,08,25,12,37,19.90
2012,08,25,12,38,20.00
2012,08,25,12,39,20.10
2012,08,25,12,40,20.10
2012,08,25,12,41,20.10
2012,08,25,12,42,20.10
2012,08,25,12,43,20.20
2012,08,25,12,44,20.20
2012,08,25,12,45,20.30
2012,08,25,12,46,20.30
2012,08,25,12,47,20.40
2012,08,25,12,48,20.40
2012,08,25,12,49,20.50
2012,08,25,12,50,20.60
2012,08,25,12,51,20.60
2012,08,25,12,52,20.70
2012,08,25,12,53,20.70
2012,08,25,12,54,20.80
2012,08,25,12,55,20.80
2012,08,25,12,56,20.90
2012,08,25,12,57,20.90
2012,08,25,12,58,21.00
2012,08,25,12,59,21.00
2012,08,25,13,00,21.10
2012,08,25,13,01,21.20
2012,08,25,13,02,21.30
2012,08,25,13,03,21.30
2012,08,25,13,04,21.30
2012,08,25,13,05,21.40
2012,08,25,13,06,21.40
2012,08,25,13,07,21.50
2012,08,25,13,08,21.60
2012,08,25,13,09,21.60
2012,08,25,13,10,21.60
2012,08,25,13,11,21.60
2012,08,25,13,12,21.60
2012,08,25,13,13,21.60
2012,08,25,13,14,21.60
2012,08,25,13,15,21.60
2012,08,25,13,16,21.60
2012,08,25,13,17,21.60
2012,08,25,13,18,21.60
2012,08,25,13,19,21.50
2012,08,25,13,20,21.40
2012,08,25,13,21,21.40
2012,08,25,13,22,21.40
2012,08,25,13,23,21.40
2012,08,25,13,24,21.50
2012,08,25,13,25,21.60
2012,08,25,13,26,21.60
2012,08,25,13,27,21.60
2012,08,25,13,28,21.60
2012,08,25,13,29,21.60
2012,08,25,13,30,21.60
2012,08,25,13,31,21.60
2012,08,25,13,32,21.60
2012,08,25,13,33,21.70
2012,08,25,13,34,21.60
2012,08,25,13,35,21.60
2012,08,25,13,36,21.60
2012,08,25,13,37,21.60
2012,08,25,13,38,21.70
2012,08,25,13,39,21.70
2012,08,25,13,40,21.70
2012,08,25,13,41,21.80
2012,08,25,13,42,22.00
2012,08,25,13,43,22.10
2012,08,25,13,44,22.20
2012,08,25,13,45,22.20
2012,08,25,13,46,22.30
2012,08,25,13,47,22.30
2012,08,25,13,48,22.40
2012,08,25,13,49,22.50
2012,08,25,13,50,22.50
2012,08,25,13,51,22.60
2012,08,25,13,52,22.60
2012,08,25,13,53,22.60
2012,08,25,13,54,22.60
2012,08,25,13,55,22.60
2012,08,25,13,56,22.50
2012,08,25,13,57,22.30
2012,08,25,13,58,22.30
2012,08,25,13,59,22.20
2012,08,25,14,00,22.20
2012,08,25,14,01,22.20
2012,08,25,14,02,22.30
2012,08,25,14,03,22.30
2012,08,25,14,04,22.40
2012,08,25,14,05,22.50
2012,08,25,14,06,22.60
2012,08,25,14,07,22.60
2012,08,25,14,08,22.70
2012,08,25,14,09,22.80
2012,08,25,14,10,22.90
2012,08,25,14,11,23.00
2012,08,25,14,12,23.10
2012,08,25,14,13,23.10
2012,08,25,14,14,23.10
2012,08,25,14,15,23.10
2012,08,25,14,16,23.10
2012,08,25,14,17,23.20
2012,08,25,14,18,23.30
2012,08,25,14,19,23.30
2012,08,25,14,20,23.30
2012,08,25,14,21,23.30
2012,08,25,14,22,23.30
2012,08,25,14,23,23.30
2012,08,25,14,24,23.30
2012,08,25,14,25,23.30
2012,08,25,14,26,23.30
2012,08,25,14,27,23.30
2012,08,25,14,28,23.30
2012,08,25,14,29,23.20
2012,08,25,14,30,23.20
2012,08,25,14,31,23.20
2012,08,25,14,32,23.30
2012,08,25,14,33,23.30
2012,08,25,14,34,23.30
2012,08,25,14,35,23.30
2012,08,25,14,36,23.40
2012,08,25,14,37,23.40
2012,08,25,14,38,23.40
2012,08,25,14,39,23.50
2012,08,25,14,40,23.60
2012,08,25,14,41,23.60
2012,08,25,14,42,23.60
2012,08,25,14,43,23.60
2012,08,25,14,44,23.60
2012,08,25,14,45,23.60
2012,08,25,14,46,23.60
2012,08,25,14,47,23.60
2012,08,25,14,48,23.60
2012,08,25,14,49,23.40
2012,08,25,14,50,23.30
2012,08,25,14,51,23.30
2012,08,25,14,52,23.30
2012,08,25,14,53,23.30
2012,08,25,14,54,23.30
2012,08,25,14,55,23.30
2012,08,25,14,56,23.30
2012,08,25,14,57,23.30
2012,08,25,14,58,23.30
2012,08,25,14,59,23.30
2012,08,25,15,00,23.40
2012,08,25,15,01,23.50
2012,08,25,15,02,23.60
2012,08,25,15,03,23.70
2012,08,25,15,04,23.80
2012,08,25,15,05,23.80
2012,08,25,15,06,23.80
2012,08,25,15,07,23.80
2012,08,25,15,08,23.90
2012,08,25,15,09,23.90
2012,08,25,15,10,23.90
2012,08,25,15,11,24.00
2012,08,25,15,12,24.10
2012,08,25,15,13,24.10
2012,08,25,15,14,24.10
2012,08,25,15,15,24.10
2012,08,25,15,16,24.10
2012,08,25,15,17,24.10
2012,08,25,15,18,24.20
2012,08,25,15,19,24.20
2012,08,25,15,20,24.10
2012,08,25,15,21,24.10
2012,08,25,15,22,24.10
2012,08,25,15,23,24.10
2012,08,25,15,24,24.10
2012,08,25,15,25,24.10
2012,08,25,15,26,24.10
2012,08,25,15,27,24.10
2012,08,25,15,28,24.00
2012,08,25,15,29,23.90
2012,08,25,15,30,23.80
2012,08,25,15,31,23.80
2012,08,25,15,32,23.70
2012,08,25,15,33,23.70
2012,08,25,15,34,23.70
2012,08,25,15,35,23.60
2012,08,25,15,36,23.60
2012,08,25,15,37,23.60
2012,08,25,15,38,23.60
2012,08,25,15,39,23.50
2012,08,25,15,40,23.40
2012,08,25,15,41,23.40
2012,08,25,15,42,23.40
2012,08,25,15,43,23.40
2012,08,25,15,44,23.40
2012,08,25,15,45,23.40
2012,08,25,15,46,23.40
2012,08,25,15,47,23.40
2012,08,25,15,48,23.30
2012,08,25,15,49,23.30
2012,08,25,15,50,23.30
2012,08,25,15,51,23.30
2012,08,25,15,52,23.30
2012,08,25,15,53,23.30
2012,08,25,15,54,23.30
2012,08,25,15,55,23.30
2012,08,25,15,56,23.30
2012,08,25,15,57,23.30
2012,08,25,15,58,23.30
2012,08,25,15,59,23.30
2012,08,25,16,00,23.30
2012,08,25,16,01,23.30
2012,08,25,16,02,23.30
2012,08,25,16,03,23.30
2012,08,25,16,04,23.30
2012,08,25,16,05,23.30
2012,08,25,16,06,23.30
2012,08,25,16,07,23.30
2012,08,25,16,08,23.20
2012,08,25,16,09,23.20
2012,08,25,16,10,23.10
2012,08,25,16,11,23.10
2012,08,25,16,12,23.10
2012,08,25,16,13,23.00
2012,08,25,16,14,23.00
2012,08,25,16,15,22.90
2012,08,25,16,16,22.90
2012,08,25,16,17,22.90
2012,08,25,16,18,22.90
2012,08,25,16,19,22.90
2012,08,25,16,20,22.90
2012,08,25,16,21,22.90
2012,08,25,16,22,22.90
2012,08,25,16,23,22.90
2012,08,25,16,24,22.90
2012,08,25,16,25,22.90
2012,08,25,16,26,22.90
2012,08,25,16,27,23.00
2012,08,25,16,28,23.10
2012,08,25,16,29,23.10
2012,08,25,16,30,23.10
2012,08,25,16,31,23.20
2012,08,25,16,32,23.20
2012,08,25,16,33,23.20
2012,08,25,16,34,23.20
2012,08,25,16,35,23.30
2012,08,25,16,36,23.30
2012,08,25,16,37,23.30
2012,08,25,16,38,23.30
2012,08,25,16,39,23.30
2012,08,25,16,40,23.30
2012,08,25,16,41,23.30
2012,08,25,16,42,23.30
2012,08,25,16,43,23.30
2012,08,25,16,44,23.30
2012,08,25,16,45,23.20
2012,08,25,16,46,23.20
2012,08,25,16,47,23.20
2012,08,25,16,48,23.20
2012,08,25,16,49,23.20
2012,08,25,16,50,23.20
2012,08,25,16,51,23.10
2012,08,25,16,52,23.10
2012,08,25,16,53,23.10
2012,08,25,16,54,23.10
2012,08,25,16,55,23.10
2012,08,25,16,56,23.00
2012,08,25,16,57,22.90
2012,08,25,16,58,22.90
2012,08,25,16,59,22.90
2012,08,25,17,00,22.90
2012,08,25,17,01,22.90
2012,08,25,17,02,22.90
2012,08,25,17,03,22.90
2012,08,25,17,04,22.90
2012,08,25,17,05,22.90
2012,08,25,17,06,22.90
2012,08,25,17,07,22.90
2012,08,25,17,08,22.90
2012,08,25,17,09,22.90
2012,08,25,17,10,22.90
2012,08,25,17,11,22.90
2012,08,25,17,12,22.90
2012,08,25,17,13,22.90
2012,08,25,17,14,22.80
2012,08,25,17,15,22.80
2012,08,25,17,16,22.70
2012,08,25,17,17,22.60
2012,08,25,17,18,22.60
2012,08,25,17,19,22.50
2012,08,25,17,20,22.50
2012,08,25,17,21,22.50
2012,08,25,17,22,22.40
2012,08,25,17,23,22.40
2012,08,25,17,24,22.40
2012,08,25,17,25,22.40
2012,08,25,17,26,22.30
2012,08,25,17,27,22.30
2012,08,25,17,28,22.30
2012,08,25,17,29,22.20
2012,08,25,17,30,22.20
2012,08,25,17,31,22.20
2012,08,25,17,32,22.20
2012,08,25,17,33,22.20
2012,08,25,17,34,22.20
2012,08,25,17,35,22.20
2012,08,25,17,36,22.20
2012,08,25,17,37,22.10